TimeEST,TemperatureF,Dew PointF,Humidity,Sea Level PressureIn,VisibilityMPH,Wind Direction,Wind SpeedMPH,Gust SpeedMPH,PrecipitationIn,Events,Conditions,WindDirDegrees,DateUTC
12:51 AM,41.0,33.1,73,29.76,10.0,West,11.5,21.9,N/A,,Clear,270,2013-11-11 05:51:00
1:51 AM,41.0,30.9,67,29.80,10.0,West,11.5,18.4,N/A,,Mostly Cloudy,270,2013-11-11 06:51:00
2:51 AM,39.0,28.9,67,29.83,10.0,West,9.2,-,N/A,,Mostly Cloudy,260,2013-11-11 07:51:00
3:51 AM,39.0,28.9,67,29.86,10.0,West,10.4,-,N/A,,Scattered Clouds,260,2013-11-11 08:51:00
4:51 AM,37.0,28.9,73,29.90,10.0,West,10.4,-,N/A,,Partly Cloudy,280,2013-11-11 09:51:00
5:51 AM,37.0,28.0,70,29.92,10.0,West,12.7,-,N/A,,Partly Cloudy,280,2013-11-11 10:51:00
6:51 AM,37.0,27.0,67,29.97,10.0,WSW,6.9,-,N/A,,Scattered Clouds,250,2013-11-11 11:51:00
7:51 AM,37.0,28.0,70,30.00,10.0,WSW,6.9,-,N/A,,Scattered Clouds,240,2013-11-11 12:51:00
8:51 AM,42.1,28.0,58,30.00,10.0,NW,15.0,-,N/A,,Partly Cloudy,310,2013-11-11 13:51:00
9:51 AM,42.1,28.0,58,30.03,10.0,WNW,10.4,-,N/A,,Mostly Cloudy,300,2013-11-11 14:51:00
10:51 AM,44.1,27.0,51,30.03,10.0,WSW,9.2,-,N/A,,Mostly Cloudy,250,2013-11-11 15:51:00
11:51 AM,44.1,26.1,49,30.01,10.0,West,12.7,17.3,N/A,,Scattered Clouds,260,2013-11-11 16:51:00
12:51 PM,45.0,27.0,49,30.00,10.0,West,15.0,-,N/A,,Partly Cloudy,280,2013-11-11 17:51:00
1:51 PM,46.0,26.1,46,29.98,10.0,West,11.5,-,N/A,,Clear,260,2013-11-11 18:51:00
2:51 PM,44.1,25.0,47,29.96,10.0,West,11.5,-,N/A,,Clear,280,2013-11-11 19:51:00
3:51 PM,43.0,24.1,47,29.97,10.0,WNW,4.6,-,N/A,,Mostly Cloudy,290,2013-11-11 20:51:00
4:51 PM,39.0,25.0,57,29.97,10.0,Calm,Calm,-,N/A,,Scattered Clouds,0,2013-11-11 21:51:00
5:51 PM,37.9,26.1,62,29.96,10.0,South,3.5,-,N/A,,Clear,190,2013-11-11 22:51:00
6:51 PM,39.9,28.0,63,29.94,10.0,Calm,Calm,-,N/A,,Overcast,0,2013-11-11 23:51:00
7:51 PM,39.9,28.0,63,29.92,10.0,West,3.5,-,N/A,,Overcast,260,2013-11-12 00:51:00
8:51 PM,41.0,27.0,57,29.90,10.0,SW,3.5,-,N/A,,Overcast,220,2013-11-12 01:51:00
9:51 PM,42.1,26.1,53,29.88,10.0,SW,5.8,-,N/A,,Mostly Cloudy,230,2013-11-12 02:51:00
10:51 PM,41.0,27.0,57,29.87,10.0,SW,5.8,-,N/A,,Overcast,220,2013-11-12 03:51:00
11:51 PM,41.0,27.0,57,29.86,10.0,SW,3.5,-,N/A,,Overcast,230,2013-11-12 04:51:00